Tracking 29892 objects as of 21-Nov-2024
HD Live streaming from Space Station
objects crossing your sky now

SL-4 R/B

Track SL-4 R/B now!
10-day predictions


NORAD ID: 39679
Int'l Code: 2014-021B
Perigee: 411.1 km
Apogee: 585.9 km
Inclination: 51.6 °
Period: 94.4 minutes
Semi major axis: 6869 km
RCS: Unknown
Launch date: April 16, 2014
Source: Commonwealth of Independent States (former USSR) (CIS)
Launch site: TYURATAM MISSILE AND SPACE COMPLEX (TTMTR)

Note: This is a ROCKET BODY
Your satellite tracking list
Your tracking list is empty




NASA's NSSDC Master Catalog

Two Line Element Set (TLE):
1 39679U 14021B   24325.76819875  .00020112  00000-0  64395-3 0  9995
2 39679  51.6132 104.7601 0127286 193.0846 166.6820 15.24811711583613
Source of the keplerian elements: AFSPC